EST,Max TemperatureF,Mean TemperatureF,Min TemperatureF,Max Dew PointF,MeanDew PointF,Min DewpointF,Max Humidity, Mean Humidity, Min Humidity, Max Sea Level PressureIn, Mean Sea Level PressureIn, Min Sea Level PressureIn, Max VisibilityMiles, Mean VisibilityMiles, Min VisibilityMiles, Max Wind SpeedMPH, Mean Wind SpeedMPH, Max Gust SpeedMPH,PrecipitationIn, CloudCover, Events, WindDirDegrees
2013-1-1,26,22,19,21,16,12,80,72,64,30.12,30.08,30.02,10,10,10,13,4,17,0.00,7,,323
2013-1-2,21,16,12,18,13,5,93,80,73,30.17,30.13,30.09,10,10,10,9,6,,0.00,6,Snow,225
2013-1-3,28,19,10,25,16,3,93,79,67,30.18,30.12,30.08,10,9,5,14,8,21,0.00,7,Snow,238
2013-1-4,26,20,15,21,17,10,93,79,69,30.20,30.16,30.11,10,10,7,18,12,25,0.00,2,,243
2013-1-5,33,25,17,30,23,16,100,87,70,30.23,30.14,30.00,10,8,2,16,8,21,0.00,3,Snow,213
2013-1-6,33,30,28,30,28,25,100,85,75,30.28,30.03,29.90,10,9,3,16,12,26,0.00,7,Snow,263
2013-1-7,33,25,17,25,22,18,100,83,69,30.36,30.26,30.12,10,8,2,20,7,25,0.00,1,,212
2013-1-8,37,30,23,27,24,19,86,79,65,30.22,30.16,30.12,10,8,5,14,6,,0.00,0,,198
2013-1-9,46,38,28,34,28,21,87,68,43,30.45,30.20,30.04,10,10,7,17,11,26,0.00,1,Rain,251
2013-1-10,39,31,23,34,27,21,93,81,65,30.51,30.38,30.05,10,9,2,17,5,24,0.00,2,Rain-Snow,125
2013-1-11,53,44,35,52,44,34,100,90,82,30.05,29.84,29.74,10,8,2,18,12,26,0.00,5,Rain,187
2013-1-12,57,50,41,48,45,37,93,85,72,29.95,29.87,29.80,10,10,4,14,9,22,0.00,1,Rain,225
2013-1-13,39,32,23,37,32,19,100,95,86,30.11,29.91,29.78,10,5,2,15,9,21,0.00,8,Rain-Snow,322
2013-1-14,24,20,15,19,16,12,93,83,69,30.42,30.32,30.12,10,10,10,16,9,23,0.00,7,Snow,302
2013-1-15,28,20,12,21,16,10,100,84,64,30.39,30.30,30.11,10,10,7,6,0,,0.00,0,,112
2013-1-16,33,26,19,27,20,16,100,75,51,30.11,29.95,29.83,10,9,4,20,6,26,0.00,4,,245
2013-1-17,33,26,19,28,20,10,93,72,52,30.31,30.17,29.99,10,10,7,20,7,30,0.00,3,Snow,298
2013-1-18,35,28,21,25,18,12,80,65,52,30.38,30.23,29.97,10,10,10,25,9,32,0.00,3,,221
2013-1-19,46,40,35,34,30,25,81,66,53,29.97,29.84,29.68,10,10,10,25,18,32,0.00,1,,232
2013-1-20,41,28,15,27,11,7,86,68,48,30.20,30.08,29.69,10,9,2,29,16,46,0.00,7,Snow,290
2013-1-21,17,12,6,12,6,1,86,77,67,30.12,30.05,30.00,10,6,0,23,11,31,0.00,8,Snow,272
2013-1-22,8,4,0,3,-2,-6,85,75,56,30.26,30.22,30.12,10,9,1,15,9,23,0.00,5,Snow,261
2013-1-23,17,10,3,16,5,0,93,75,57,30.25,30.15,30.03,10,8,1,20,8,31,0.00,8,Snow,245
2013-1-24,15,9,3,9,1,-4,92,66,41,30.57,30.44,30.14,10,10,5,16,7,24,0.00,1,Snow,40
2013-1-25,23,19,15,19,13,1,93,79,53,30.41,30.11,29.96,10,7,2,12,8,,0.00,8,Snow,188
2013-1-26,26,20,14,21,17,10,100,82,64,30.40,30.25,30.03,10,8,2,9,2,,0.00,5,Snow,316
2013-1-27,32,24,17,30,20,14,93,81,69,30.41,30.29,30.03,10,9,3,21,6,30,0.00,5,Snow,154
2013-1-28,48,40,32,46,40,30,100,98,93,30.02,29.93,29.86,5,1,0,15,8,21,0.00,8,Fog-Rain,222
2013-1-29,57,47,37,55,51,37,100,97,88,29.95,29.70,29.38,10,3,0,25,11,32,0.00,8,Fog-Rain,185
2013-1-30,55,40,26,54,43,25,100,95,86,29.40,29.28,29.15,10,5,0,22,9,33,0.00,8,Fog-Rain-Snow,245
2013-1-31,28,20,12,25,14,9,93,84,68,29.93,29.71,29.41,10,4,0,23,17,39,0.00,8,Snow,267